Regional Weather Roundup
Issued by NWS Northern Indiana

Home | Current Version | Previous Version | Text Only | Print | Product List | Glossary Off
Versions: 1 2 3 4 5 6 7 8 9 10 11 12 13 14 15 16 17 18 19 20 21 22 23 24 25 26 27 28 29 30 31 32 33 34 35 36 37 38 39 40 41 42 43 44 45 46 47 48 49 50

919
ASUS43 KIWX 182210
RWRIWX

KIWX WEATHER ROUNDUP
NATIONAL WEATHER SERVICE NORTHERN INDIANA
500 PM EST THU JAN 18 2018

NOTE: "FAIR" INDICATES FEW OR NO CLOUDS BELOW 12,000 FEET WITH NO
SIGNIFICANT WEATHER AND/OR OBSTRUCTIONS TO VISIBILITY.

* THESE STATIONS ARE NOT UNDER NWS QUALITY CONTROL. THEY ALSO MAY NOT
  REPORT WEATHER SUCH AS PRECIPITATION OR FOG.

INZ001>027-182300-
NORTHERN INDIANA

CITY           SKY/WX    TMP DP  RH WIND       PRES   REMARKS
GARY*          CLEAR     32  18  55 SW24      30.03F WCI  19
VALPARAISO     FAIR      31  18  58 SW16G24   30.04F WCI  20
MICHIGAN CITY* FAIR      30  18  59 SW13      30.03S WCI  20
LAPORTE*       FAIR      27  18  67 SW13      30.04S WCI  17
KNOX*          FAIR      28  19  69 SW17      30.06F WCI  16
SOUTH BEND     FAIR      27  16  63 SW20G25   30.03F WCI  13
ELKHART*       FAIR      28  16  59 SW14      30.03F WCI  17
GOSHEN         FAIR      26  15  63 SW18G28   30.05S WCI  13
MONTICELLO*    FAIR      29  15  55 SW12      30.10F WCI  19
LOGANSPORT*    FAIR      28  18  64 SW12      30.11F WCI  18
ROCHESTER*     FAIR      30  19  64 SW10      30.08F WCI  21
WARSAW*        FAIR      28  16  59 SW6       30.06F WCI  22
AUBURN*        FAIR      28  14  54 SW9G18    30.07S WCI  20
FORT WAYNE     FAIR      26  17  68 SW15      30.10S WCI  14
HUNTINGTON*    FAIR      27  14  59 SW9G17    30.10S WCI  17
PERU/GRISSOM   FAIR      27  16  64 SW16      30.10S WCI  14
MARION*        FAIR      28  17  64 SW14      30.13S WCI  16

$$
INZ028>050-182300-
CENTRAL INDIANA

CITY           SKY/WX    TMP DP  RH WIND       PRES   REMARKS
LAFAYETTE      FAIR      29  15  56 SW10      30.12F WCI  20
MUNCIE*        FAIR      31  13  47 SW13      30.13S WCI  21
INDIANAPOLIS   FAIR      30  14  51 SW16      30.17F WCI  19

$$
MIZ043>046-050>051-056>058-064>065-071>073-077>080-182300-
SOUTHWEST LOWER MICHIGAN

CITY           SKY/WX    TMP DP  RH WIND       PRES   REMARKS
BATTLE CREEK   FAIR      28  16  60 SW13      29.97S WCI  17
BENTON HARBOR  FAIR      31  15  52 SW10      29.99F WCI  22
COLDWATER*     FAIR      27  15  61 SW15G21   30.00S WCI  15
HILLSDALE*     FAIR      30  14  51 SW10G22   29.98F WCI  21
HOLLAND        FAIR      30  21  69 SW15      29.94F WCI  19
GRAND RAPIDS   FAIR      30  18  60 SW9       29.94S WCI  22
KALAMAZOO      FAIR      30  15  53 SW18G24   29.98F WCI  18
STURGIS*       FAIR      26  17  66 SW16      30.01S WCI  14
THREE RIVERS*  FAIR      28  17  61 SW13      30.01S WCI  18

$$
OHZ001>008-015>018-024>025-182300-
NORTHWEST OHIO

CITY           SKY/WX    TMP DP  RH WIND       PRES   REMARKS
WAUSEON*       FAIR      27  18  69 SW16      30.05S WCI  14
DEFIANCE       FAIR      25  15  66 SW16G24   30.08F WCI  12
FINDLAY        FAIR      25  14  63 SW15      30.10S WCI  13
TOLEDO EXPRESS FAIR      26  17  68 SW16G25   30.05F WCI  14
TOLEDO METCALF FAIR      25  16  68 SW16      30.07F WCI  12
LIMA           FAIR      26  15  63 SW14      30.11F WCI  14

$$
AND FOR LAKE MICHIGAN COASTAL AND OPEN LAKE BUOY OBSERVATIONS

STATION/POSITION TEMP    WIND        PRES    VSBY  WAVE
                 AIR SEA DIR/SP/G                  HT/PER
                 (F)     (DEG/KT/KT) (MB)    (MI)  (FT/S)
CALUMET HARBOR    31     200/ 15/ 22 1015.4F
MICHIGAN CITY     30     190/ 17/ 20   N/A
BURNS HARBOR      30     200/ 17/ 22 1016.9F
SAINT JOSEPH      30     200/ 14/ 19 1015.9

$$
&&




USA.gov is the U.S. government's official web portal to all federal, state and local government web resources and services.